Wind_Speed
23 23 24 25 26 25 24 23 22 21 19 18 17 15 15 15 15 15 14 14 14 13 12 11 10 9 9 9 9 10 10 9 9 9 8 8 7 6 5 5 5 4
23 23 24 25 26 26 25 23 22 21 20 19 18 17 17 17 16 16 15 15 14 13 13 12 12 11 10 10 10 10 10 10 9 9 9 8 7 6 6 5 5 5
24 23 24 25 25 24 23 24 24 22 22 21 20 19 19 18 17 17 16 15 15 14 14 13 13 12 12 11 11 11 11 11 11 10 10 9 8 7 7 6 6 6
24 24 23 24 24 23 22 24 25 25 24 23 22 22 21 20 19 18 17 17 16 15 15 14 14 14 13 12 12 12 12 12 12 12 11 10 10 9 8 7 6 6
25 24 23 23 24 24 23 23 25 26 26 25 24 24 23 23 21 20 19 18 17 16 16 16 15 15 15 14 13 13 13 13 13 13 13 12 11 11 9 8 8 7
26 26 25 24 24 25 26 24 23 24 26 26 26 25 25 24 24 22 21 20 19 18 17 17 16 16 16 15 14 14 14 14 14 14 14 14 14 13 12 10 9 8
27 27 26 25 24 25 26 25 24 23 24 25 26 26 26 25 25 23 22 22 21 20 19 18 18 17 17 16 15 15 15 15 15 16 15 16 16 15 14 13 12 11
26 27 27 27 26 26 26 26 26 25 24 24 25 25 26 26 25 24 23 23 23 22 22 21 20 19 19 18 17 16 16 16 16 16 16 17 17 17 16 16 15 14
27 27 27 28 28 28 27 26 26 26 26 26 25 24 25 25 25 25 24 24 24 24 24 24 23 22 21 20 19 18 17 17 16 16 17 17 18 18 18 18 17 16
30 29 28 29 29 28 28 27 26 26 27 27 26 26 26 25 25 25 25 25 25 24 24 25 25 24 24 23 21 20 19 18 17 17 17 17 18 18 19 20 19 19
31 30 30 29 29 29 28 27 27 27 28 28 28 27 27 27 26 26 26 26 26 25 25 25 25 25 25 24 23 22 21 20 20 19 18 18 18 18 20 21 21 20
31 31 30 29 29 28 28 28 28 28 29 29 29 29 28 28 28 28 27 26 26 26 26 26 25 25 26 25 25 24 24 23 22 22 20 19 18 18 19 19 20 21
31 31 30 29 29 28 28 28 28 29 29 29 29 30 30 30 30 29 28 26 25 25 27 27 27 26 26 26 26 26 26 26 25 24 22 21 20 19 19 19 19 20
31 30 30 29 29 29 29 29 29 29 29 30 30 31 31 31 30 30 29 28 26 25 26 27 28 29 28 27 28 28 28 28 27 26 25 23 21 19 19 19 19 19
30 30 31 31 30 30 30 29 29 29 29 30 31 31 31 31 31 31 30 30 28 27 26 27 29 31 30 29 29 29 30 29 28 27 26 24 22 20 20 20 20 20
31 31 32 32 32 31 31 30 30 30 30 30 31 31 31 31 31 31 31 31 30 28 27 28 30 31 30 30 29 30 30 30 30 29 28 26 24 22 21 21 20 20
32 32 32 32 31 30 31 31 31 31 31 31 31 31 31 31 31 32 32 31 31 30 29 29 29 29 29 29 29 29 31 31 31 30 29 28 27 25 23 22 22 21
32 32 31 31 30 29 29 30 31 32 32 32 32 31 30 30 31 31 32 31 31 30 30 30 29 28 28 27 28 29 30 31 32 32 31 30 29 27 25 24 23 23
31 32 32 31 29 28 28 29 31 32 32 32 31 31 31 31 31 31 31 31 31 30 30 29 29 28 27 27 27 28 29 30 32 32 32 31 30 28 27 26 25 24
32 32 32 31 30 30 29 29 30 30 30 30 30 31 31 31 31 31 31 31 30 29 29 29 29 28 27 27 26 27 28 29 31 32 32 32 31 30 29 28 27 27
33 33 33 33 32 32 31 30 30 29 28 28 29 30 30 30 30 31 31 31 30 29 28 28 28 27 27 26 26 26 27 28 30 32 33 32 32 31 30 29 29 28
35 35 35 35 34 34 34 32 31 29 29 29 29 29 29 30 30 31 31 31 30 30 29 28 27 27 27 27 26 26 26 28 29 31 32 32 32 31 31 30 29 29
37 36 36 37 37 36 35 33 32 31 30 31 30 30 29 29 29 29 30 30 30 30 30 28 26 26 27 27 26 26 27 28 29 30 31 31 31 31 30 30 30 29
37 38 38 38 39 38 36 35 33 33 32 32 32 31 30 29 29 28 29 29 30 30 30 28 27 26 27 27 27 27 27 28 28 28 29 29 29 29 29 30 30 29
37 40 40 40 40 40 39 37 35 34 34 34 34 33 32 31 30 30 29 29 29 29 29 29 28 27 27 27 27 28 29 29 29 29 29 28 27 27 28 28 29 29
37 42 43 42 42 42 41 40 39 37 36 35 35 35 34 33 32 31 30 30 29 29 29 29 29 28 28 28 28 29 30 30 31 31 30 29 28 28 28 28 27 28
Wind_Direction
214 211 211 213 215 216 213 210 212 214 214 211 207 204 205 206 205 204 201 198 197 196 195 194 191 187 178 173 171 167 164 165 163 160 158 155 153 155 155 148 144 142
217 214 211 213 216 217 215 212 212 214 216 215 211 207 208 211 209 207 206 204 203 203 201 198 197 194 188 183 180 176 173 172 172 170 168 165 163 163 164 163 160 155
220 217 213 213 217 219 217 213 212 212 213 215 215 212 211 213 212 210 210 209 207 208 207 204 201 199 195 189 186 184 181 180 179 180 178 175 174 173 173 175 170 159
223 221 217 214 217 221 220 216 213 212 213 214 215 215 215 215 214 213 213 213 211 210 210 209 206 203 201 196 191 189 189 187 186 188 188 186 184 183 182 183 179 171
224 225 221 217 216 219 221 219 215 215 215 215 215 216 217 217 217 216 216 216 216 214 212 212 209 207 205 201 197 193 193 193 192 194 195 196 195 192 190 191 191 188
221 225 226 222 218 219 221 221 218 217 218 218 219 219 219 219 219 218 218 218 219 218 216 214 212 210 207 205 202 198 196 195 196 198 200 202 202 200 197 198 200 199
216 222 226 226 223 221 222 222 220 219 219 219 221 222 222 222 221 220 220 220 220 222 221 219 216 214 211 208 205 203 200 198 198 201 203 206 207 205 203 201 202 205
214 219 223 227 226 224 222 222 221 221 220 221 221 222 222 223 225 224 223 222 222 223 224 223 220 217 216 213 209 207 206 204 203 202 205 209 210 210 209 206 204 205
214 217 221 225 227 227 224 222 222 221 222 223 223 223 223 223 224 226 227 226 225 223 224 225 224 221 219 217 214 212 211 211 210 207 207 210 211 212 214 212 209 207
213 215 219 223 226 227 226 224 222 222 222 223 224 225 225 225 224 225 227 229 228 225 224 224 224 223 221 219 218 217 215 215 216 213 210 210 211 214 216 216 214 212
214 213 216 221 225 227 227 226 224 223 223 223 223 224 226 227 227 226 226 227 228 228 227 226 225 224 223 222 221 220 220 220 220 218 214 213 214 216 217 218 218 217
217 216 216 218 222 226 228 227 226 226 225 224 224 225 226 227 229 230 229 227 225 226 229 229 228 226 225 224 224 223 222 222 222 221 218 216 217 219 220 220 219 219
220 221 219 218 220 223 226 227 228 228 227 227 227 227 227 228 229 232 233 231 226 223 224 228 230 230 227 225 225 224 223 223 224 224 222 220 218 220 222 222 221 220
221 223 223 222 221 222 223 225 227 228 228 228 229 230 230 230 230 232 234 235 232 226 223 224 227 230 229 226 225 225 225 225 225 226 227 225 222 221 223 224 223 222
221 223 224 225 224 223 223 224 225 227 228 228 229 231 232 233 234 234 234 236 236 232 227 224 225 228 229 227 226 226 227 228 228 229 229 229 227 225 225 226 226 225
221 222 224 225 225 225 224 225 225 226 227 228 229 231 232 234 236 236 236 236 236 235 231 227 226 226 227 228 227 227 228 230 230 231 231 232 232 230 228 228 229 229
221 221 223 224 225 226 226 227 227 227 228 228 229 229 231 233 235 237 237 237 236 235 233 230 228 227 227 228 228 228 229 230 231 232 232 233 234 234 233 230 230 230
220 221 222 223 224 225 226 227 229 229 230 229 229 229 230 231 233 236 237 238 238 236 235 233 230 229 228 227 227 228 229 231 232 233 233 233 234 236 237 236 234 233
220 221 222 222 222 223 224 226 228 230 231 231 231 231 231 231 232 235 237 238 239 237 235 234 233 231 229 227 226 226 228 230 233 234 234 234 235 236 238 240 240 239
221 221 221 221 220 220 222 224 227 229 231 232 233 232 232 232 232 234 236 239 240 239 236 234 234 234 232 229 226 226 228 230 233 234 234 235 236 237 238 239 240 241
227 224 223 222 221 221 221 222 224 227 229 231 233 233 233 234 233 234 236 239 241 242 239 236 235 236 236 232 228 227 228 230 233 235 236 236 237 238 238 238 238 240
232 228 225 225 225 223 222 222 223 225 228 230 232 234 234 235 235 235 236 238 240 242 242 238 235 235 237 236 233 230 229 231 233 235 236 237 238 239 239 239 239 240
233 230 227 226 228 227 225 223 223 225 228 230 233 234 235 235 236 236 237 238 239 241 242 241 236 234 235 238 238 235 233 233 234 235 237 238 239 240 241 241 242 243
234 233 229 226 227 227 226 225 224 225 227 230 234 236 236 237 237 238 239 239 240 241 242 242 239 235 233 235 237 238 238 237 237 238 238 239 240 241 242 242 244 245
234 234 230 226 225 226 227 227 226 226 228 230 234 236 238 239 240 240 240 240 241 242 242 242 241 238 235 233 233 235 238 240 240 241 241 240 241 243 244 244 245 246
230 231 230 226 224 225 227 228 228 228 229 230 233 236 238 239 240 241 241 241 242 243 243 244 243 241 238 235 234 233 235 238 241 243 243 242 243 246 248 249 250 250
Height
3213 3215 3216 3218 3219 3221 3223 3225 3227 3228 3230 3231 3233 3234 3235 3236 3236 3237 3237 3238 3239 3239 3240 3241 3241 3242 3243 3244 3244 3245 3246 3246 3246 3247 3247 3247 3247 3248 3248 3248 3248 3249
3211 3213 3215 3216 3218 3220 3222 3224 3225 3227 3229 3230 3232 3233 3234 3234 3235 3236 3237 3237 3238 3239 3239 3240 3240 3241 3242 3243 3244 3245 3245 3246 3246 3247 3247 3247 3248 3248 3248 3249 3249 3249
3209 3211 3213 3215 3216 3218 3220 3222 3224 3226 3227 3229 3230 3231 3232 3234 3235 3236 3236 3237 3237 3238 3239 3239 3240 3241 3241 3242 3243 3244 3245 3245 3246 3246 3247 3247 3248 3248 3248 3249 3249 3249
3207 3209 3212 3214 3215 3217 3219 3221 3222 3224 3226 3227 3229 3230 3231 3232 3234 3235 3235 3236 3237 3237 3238 3239 3239 3240 3240 3241 3242 3243 3244 3245 3245 3246 3246 3247 3247 3248 3248 3249 3249 3249
3206 3208 3210 3212 3214 3215 3217 3218 3220 3222 3224 3226 3227 3229 3230 3231 3232 3233 3234 3235 3236 3236 3237 3238 3238 3239 3240 3240 3241 3242 3243 3244 3245 3245 3246 3246 3247 3247 3248 3248 3249 3249
3204 3206 3208 3210 3212 3214 3215 3216 3218 3220 3222 3224 3226 3227 3229 3230 3231 3232 3233 3234 3235 3235 3236 3237 3237 3238 3239 3239 3240 3241 3242 3243 3243 3244 3245 3245 3246 3247 3247 3248 3248 3249
3201 3204 3206 3208 3210 3212 3213 3215 3217 3218 3220 3222 3224 3225 3227 3228 3229 3230 3232 3232 3233 3234 3235 3235 3236 3237 3237 3238 3239 3240 3241 3241 3242 3243 3244 3244 3245 3246 3247 3247 3248 3248
3199 3202 3204 3206 3208 3210 3211 3213 3215 3216 3218 3220 3221 3223 3225 3226 3227 3229 3230 3231 3231 3232 3233 3234 3234 3235 3236 3237 3238 3239 3239 3240 3241 3241 3242 3243 3244 3245 3245 3246 3247 3247
3197 3199 3202 3204 3206 3207 3209 3211 3213 3215 3216 3217 3219 3221 3223 3224 3225 3227 3228 3229 3230 3230 3231 3232 3233 3234 3234 3235 3236 3237 3238 3239 3239 3240 3241 3241 3242 3243 3244 3245 3245 3246
3194 3196 3199 3201 3203 3205 3207 3209 3211 3213 3214 3216 3217 3219 3220 3222 3223 3225 3226 3227 3227 3228 3229 3230 3231 3232 3232 3233 3234 3235 3236 3237 3238 3239 3239 3239 3240 3241 3242 3243 3244 3245
3192 3193 3195 3198 3200 3203 3205 3207 3209 3211 3212 3214 3215 3216 3218 3219 3221 3222 3223 3224 3225 3226 3227 3228 3229 3230 3231 3232 3233 3234 3235 3236 3236 3237 3237 3238 3238 3239 3240 3241 3242 3243
3190 3191 3192 3194 3197 3200 3203 3205 3207 3208 3210 3211 3213 3214 3216 3217 3218 3219 3221 3222 3223 3225 3226 3226 3227 3228 3229 3230 3231 3232 3232 3233 3234 3235 3236 3236 3237 3237 3238 3239 3240 3241
3188 3189 3191 3192 3194 3197 3201 3203 3205 3206 3207 3209 3210 3212 3213 3215 3216 3217 3218 3219 3221 3222 3223 3224 3225 3226 3227 3228 3228 3229 3230 3231 3232 3233 3234 3234 3235 3235 3236 3237 3237 3238
3185 3187 3189 3191 3192 3194 3197 3200 3202 3203 3204 3206 3208 3209 3210 3212 3213 3215 3216 3217 3218 3220 3221 3222 3223 3223 3224 3225 3226 3227 3227 3228 3229 3230 3231 3232 3233 3234 3234 3234 3235 3236
3183 3185 3187 3189 3190 3192 3194 3196 3198 3200 3202 3203 3204 3206 3207 3209 3211 3213 3214 3215 3216 3217 3218 3219 3219 3220 3221 3222 3223 3224 3225 3226 3227 3228 3229 3230 3231 3231 3232 3232 3233 3233
3180 3182 3184 3186 3187 3189 3191 3193 3195 3197 3199 3200 3201 3203 3204 3206 3208 3210 3211 3212 3213 3214 3215 3216 3216 3217 3219 3220 3221 3222 3223 3223 3224 3225 3226 3227 3228 3229 3229 3230 3230 3231
3177 3179 3181 3182 3184 3186 3188 3190 3192 3194 3195 3197 3198 3200 3201 3203 3205 3206 3208 3209 3211 3212 3213 3213 3214 3215 3217 3218 3219 3220 3220 3221 3222 3222 3223 3224 3225 3226 3226 3227 3228 3228
3174 3176 3178 3179 3181 3183 3185 3187 3189 3190 3192 3193 3195 3196 3198 3200 3201 3203 3205 3206 3208 3209 3210 3210 3211 3213 3214 3216 3216 3217 3218 3218 3219 3220 3221 3221 3222 3223 3224 3224 3225 3226
3173 3174 3175 3177 3178 3180 3182 3184 3185 3187 3188 3190 3192 3194 3195 3197 3198 3200 3202 3203 3205 3206 3207 3208 3209 3210 3212 3213 3214 3215 3215 3215 3216 3217 3218 3219 3220 3220 3221 3222 3222 3223
3171 3172 3174 3175 3176 3177 3179 3180 3182 3183 3185 3187 3189 3191 3192 3193 3195 3197 3199 3200 3202 3203 3205 3206 3207 3208 3209 3211 3212 3212 3213 3213 3213 3214 3215 3216 3217 3217 3218 3219 3219 3220
3168 3170 3172 3173 3174 3175 3175 3177 3179 3181 3183 3184 3186 3187 3188 3190 3192 3194 3196 3197 3199 3201 3202 3203 3205 3206 3207 3208 3209 3210 3210 3210 3211 3211 3212 3212 3213 3214 3215 3216 3217 3217
3165 3167 3169 3171 3172 3172 3173 3174 3176 3178 3180 3182 3183 3184 3185 3187 3188 3190 3192 3194 3196 3197 3199 3200 3202 3204 3205 3206 3207 3208 3208 3208 3208 3208 3209 3209 3210 3211 3212 3213 3214 3215
3161 3163 3165 3167 3169 3170 3170 3171 3173 3175 3177 3179 3180 3181 3183 3184 3185 3187 3189 3191 3193 3194 3195 3197 3199 3201 3202 3204 3205 3205 3205 3205 3205 3205 3206 3206 3207 3208 3209 3210 3211 3212
3156 3158 3160 3163 3165 3166 3168 3169 3170 3172 3174 3176 3177 3179 3180 3181 3183 3185 3186 3188 3190 3191 3192 3194 3196 3198 3200 3201 3202 3203 3203 3203 3203 3203 3203 3204 3205 3206 3206 3207 3208 3209
3151 3153 3155 3158 3160 3162 3164 3166 3168 3169 3171 3173 3174 3176 3177 3179 3180 3182 3183 3185 3187 3188 3190 3191 3193 3195 3197 3198 3199 3200 3200 3200 3201 3201 3201 3202 3202 3203 3204 3204 3205 3206
3146 3147 3149 3153 3156 3158 3161 3163 3164 3165 3167 3169 3171 3173 3174 3176 3177 3179 3180 3182 3184 3185 3187 3188 3190 3191 3193 3195 3196 3197 3197 3198 3197 3197 3198 3199 3200 3200 3201 3201 3202 3203